Tracking 29892 objects as of 21-Nov-2024
HD Live streaming from Space Station
objects crossing your sky now

YAOGAN-30 M

Track YAOGAN-30 M now!
10-day predictions


NORAD ID: 43172
Int'l Code: 2018-011D
Perigee: 579.2 km
Apogee: 584.0 km
Inclination: 35.0 °
Period: 96.2 minutes
Semi major axis: 6952 km
RCS: Unknown
Launch date: January 25, 2018
Source: People's Republic of China (PRC)
Launch site: Xichang Space Center, China (XSC)
Your satellite tracking list
Your tracking list is empty




NASA's NSSDC Master Catalog

Two Line Element Set (TLE):
1 43172U 18011D   24326.15678952  .00005937  00000-0  50069-3 0  9995
2 43172  34.9986  31.8121 0003409 101.2118 258.8972 14.97557271372106
Source of the keplerian elements: AFSPC